period_start,C,m1,H,J0,J1,J2,J3,J4,J5,JA,JB,JC,JD,JJ,JK,JN,#
2017-06-18 00:03:07,0.01,0.40,0.00,22.79,26.97,29.82,13.98,46.42,1019.69,2032.85,3358.18,2986.00,3415.01,600.00,598.26,19.80,0000 0000 0000 0000 000000
2017-06-18 00:08:09,0.01,0.40,0.00,22.81,26.97,29.81,14.00,46.65,1019.65,2032.87,3357.97,2985.89,3414.97,600.05,598.21,19.85,0000 0000 0000 0000 000000
2017-06-18 00:13:10,0.01,0.40,0.00,22.82,26.99,29.81,14.03,46.63,1019.57,2032.71,3357.84,2985.52,3414.79,600.39,598.51,19.90,0000 0000 0000 0000 000000
2017-06-18 00:18:11,0.01,0.40,0.00,22.84,27.00,29.84,14.04,46.74,1019.57,2032.54,3357.20,2985.06,3414.10,599.90,598.09,19.95,0000 0000 0000 0000 000000
2017-06-18 00:23:13,-0.03,0.40,0.00,22.87,27.01,29.79,13.98,46.65,1019.58,2032.42,3356.99,2985.00,3414.00,599.69,597.56,20.01,0000 0000 0000 0000 000000
2017-06-18 00:28:14,0.00,0.40,0.00,22.87,27.02,29.82,14.05,46.64,1019.60,2032.19,3356.89,2985.00,3413.97,600.15,598.26,20.06,0000 0000 0000 0000 000000
2017-06-18 00:33:15,0.02,0.40,0.00,22.87,27.03,29.78,14.00,46.58,1019.60,2032.07,3356.38,2984.92,3413.61,600.15,598.28,20.10,0000 0000 0000 0000 000000
2017-06-18 00:38:17,0.01,0.40,0.00,22.89,27.05,29.83,14.01,46.62,1019.62,2032.02,3356.00,2984.36,3413.04,599.77,597.79,20.15,0000 0000 0000 0000 000000
2017-06-18 00:43:18,0.01,0.40,0.00,22.91,27.05,29.81,13.97,46.51,1019.64,2032.02,3355.76,2984.01,3413.00,600.20,598.22,20.21,0000 0000 0000 0000 000000
2017-06-18 00:48:19,0.01,0.40,0.00,22.92,27.06,29.85,14.00,46.51,1019.60,2032.01,3355.26,2984.00,3412.85,600.14,598.10,20.26,0000 0000 0000 0000 000000
2017-06-18 00:53:20,0.01,0.40,0.00,22.92,27.07,29.86,14.07,46.52,1019.68,2032.01,3354.99,2983.99,3412.24,600.17,598.13,20.31,0000 0000 0000 0000 000000
2017-06-18 00:58:22,0.01,0.40,0.00,22.93,27.08,29.87,14.00,46.57,1019.72,2032.01,3354.74,2983.93,3412.02,600.01,598.04,20.36,0000 0000 0000 0000 000000
2017-06-18 01:03:23,0.01,0.40,0.00,22.94,27.10,29.87,14.01,46.58,1019.64,2032.00,3354.35,2983.71,3412.00,600.12,598.15,20.41,0000 0000 0000 0000 000000
2017-06-18 01:08:24,0.02,0.40,0.00,22.96,27.10,29.88,13.91,46.48,1019.67,2032.00,3354.07,2983.25,3411.94,599.91,597.82,20.46,0000 0000 0000 0000 000000
2017-06-18 01:13:25,0.01,0.40,0.00,22.97,27.12,29.92,14.04,46.47,1019.59,2032.00,3353.92,2983.02,3411.56,600.17,597.90,20.51,0000 0000 0000 0000 000000
2017-06-18 01:18:27,0.00,0.40,0.00,22.98,27.12,29.95,13.96,46.45,1019.62,2032.00,3353.75,2983.00,3411.06,599.87,597.71,20.56,0000 0000 0000 0000 000000
2017-06-18 01:23:28,0.01,0.40,0.00,23.00,27.13,29.92,13.97,46.35,1019.61,2032.00,3353.14,2982.99,3411.00,600.06,597.77,20.61,0000 0000 0000 0000 000000
2017-06-18 01:28:29,0.00,0.40,0.00,23.02,27.15,29.94,13.97,46.40,1019.60,2032.00,3352.97,2982.92,3410.97,599.83,597.63,20.66,0000 0000 0000 0000 000000
2017-06-18 01:33:30,0.03,0.41,0.00,23.03,27.16,29.92,13.93,46.52,1019.59,2032.00,3352.84,2982.32,3410.47,600.00,597.79,20.71,0000 0000 0000 0000 000000
2017-06-18 01:38:31,0.01,0.41,0.00,23.02,27.17,29.93,13.99,46.54,1019.64,2031.99,3352.42,2982.04,3410.05,600.09,598.00,20.76,0000 0000 0000 0000 000000
2017-06-18 01:43:32,0.01,0.41,0.00,23.03,27.18,29.93,13.88,46.39,1019.64,2031.99,3352.11,2982.00,3410.00,599.90,597.65,20.81,0000 0000 0000 0000 000000
2017-06-18 01:48:33,0.01,0.41,0.00,23.05,27.20,29.95,13.96,46.47,1019.62,2031.96,3351.69,2981.92,3409.66,599.69,597.37,20.86,0000 0000 0000 0000 000000
2017-06-18 01:53:35,0.02,0.41,0.00,23.08,27.20,29.95,14.01,46.52,1019.57,2031.94,3351.31,2981.58,3409.12,600.32,597.86,20.91,0000 0000 0000 0000 000000
2017-06-18 01:58:36,0.01,0.41,0.00,23.10,27.22,29.95,13.94,46.36,1019.58,2031.89,3351.00,2981.06,3409.00,600.12,597.71,20.96,0000 0000 0000 0000 000000
2017-06-18 02:03:37,-0.00,0.41,0.00,23.12,27.23,29.96,13.96,46.33,1019.59,2031.85,3350.77,2981.01,3408.96,600.24,597.88,21.01,0000 0000 0000 0000 000000
2017-06-18 02:08:39,-0.00,0.41,0.00,23.14,27.25,29.96,13.95,46.40,1019.59,2031.76,3350.43,2981.00,3408.72,600.28,597.79,21.06,0000 0000 0000 0000 000000
2017-06-18 02:13:40,-0.02,0.41,0.00,23.17,27.26,29.97,13.96,46.41,1019.56,2031.41,3350.05,2980.95,3408.07,600.05,597.50,21.11,0000 0000 0000 0000 000000
2017-06-18 02:18:41,-0.01,0.41,0.00,23.20,27.27,29.98,13.88,46.40,1019.56,2031.08,3349.95,2980.50,3408.00,599.67,597.03,21.16,0000 0000 0000 0000 000000
2017-06-18 02:23:42,0.01,0.41,0.00,23.22,27.29,29.97,13.94,46.39,1019.56,2031.06,3349.39,2980.04,3407.94,599.91,597.20,21.21,0000 0000 0000 0000 000000
2017-06-18 02:28:44,0.02,0.41,0.00,23.25,27.30,29.97,13.95,46.49,1019.55,2031.01,3349.15,2980.00,3407.31,599.74,596.98,21.26,0000 0000 0000 0000 000000
2017-06-18 02:33:45,0.00,0.41,0.00,23.27,27.32,29.99,13.96,46.57,1019.56,2031.00,3348.96,2979.96,3407.01,599.94,597.14,21.31,0000 0000 0000 0000 000000
2017-06-18 02:38:46,0.03,0.41,0.00,23.28,27.34,30.00,13.98,46.40,1019.55,2031.00,3348.24,2979.37,3406.93,599.94,597.20,21.36,0000 0000 0000 0000 000000
2017-06-18 02:43:47,0.01,0.41,0.00,23.32,27.36,30.01,13.99,46.34,1019.55,2031.00,3348.03,2979.05,3406.40,600.11,597.29,21.41,0000 0000 0000 0000 000000
2017-06-18 02:48:49,-0.00,0.41,0.00,23.34,27.38,30.01,13.97,46.38,1019.55,2030.97,3348.02,2979.00,3406.02,600.12,597.18,21.46,0000 0000 0000 0000 000000
2017-06-18 02:53:50,0.01,0.41,0.00,23.37,27.40,30.03,13.98,46.36,1019.55,2030.96,3347.71,2978.97,3405.99,599.92,596.88,21.51,0000 0000 0000 0000 000000
2017-06-18 02:58:51,-0.00,0.41,0.00,23.39,27.42,30.06,13.89,46.42,1019.55,2030.77,3347.11,2978.67,3405.66,599.41,596.44,21.56,0000 0000 0000 0000 000000
2017-06-18 03:03:52,0.01,0.41,0.00,23.41,27.44,30.07,14.02,46.47,1019.55,2030.54,3346.85,2978.06,3405.03,600.20,597.18,21.61,0000 0000 0000 0000 000000
2017-06-18 03:08:54,-0.03,0.41,0.00,23.45,27.46,30.09,13.99,46.36,1019.55,2030.21,3346.60,2978.00,3404.99,599.91,596.75,21.66,0000 0000 0000 0000 000000
2017-06-18 03:13:55,0.02,0.41,0.00,23.47,27.48,30.10,13.97,46.45,1019.55,2030.05,3345.95,2977.97,3404.65,599.69,596.50,21.71,0000 0000 0000 0000 000000
2017-06-18 03:18:56,0.02,0.41,0.00,23.49,27.50,30.14,13.99,46.49,1019.55,2030.01,3345.74,2977.43,3404.05,600.22,596.91,21.76,0000 0000 0000 0000 000000
2017-06-18 03:23:57,0.01,0.42,0.00,23.52,27.52,30.15,13.96,46.43,1019.55,2030.00,3345.14,2977.02,3403.99,600.05,596.61,21.81,0000 0000 0000 0000 000000
2017-06-18 03:28:59,0.00,0.42,0.00,23.56,27.55,30.18,14.00,46.58,1019.55,2030.00,3345.00,2977.00,3403.88,600.20,596.80,21.86,0000 0000 0000 0000 000000
2017-06-18 03:34:00,0.02,0.42,0.00,23.58,27.57,30.18,13.98,46.48,1019.55,2030.00,3344.63,2976.99,3403.18,600.16,596.73,21.91,0000 0000 0000 0000 000000
2017-06-18 03:39:01,0.03,0.42,0.00,23.60,27.60,30.22,13.87,46.57,1019.54,2030.00,3344.02,2976.51,3402.99,599.96,596.52,21.96,0000 0000 0000 0000 000000
2017-06-18 03:44:03,0.03,0.42,0.00,23.62,27.62,30.24,13.97,46.48,1019.51,2030.00,3343.51,2976.04,3402.57,600.23,596.82,22.01,0000 0000 0000 0000 000000
2017-06-18 03:49:04,0.01,0.42,0.00,23.65,27.64,30.26,13.91,46.47,1019.49,2030.00,3343.07,2976.00,3402.03,599.95,596.32,22.06,0000 0000 0000 0000 000000
2017-06-18 03:54:06,0.01,0.42,0.00,23.67,27.66,30.28,13.93,46.48,1019.51,2029.97,3342.91,2975.84,3401.99,600.08,596.49,22.11,0000 0000 0000 0000 000000
2017-06-18 03:59:07,0.02,0.42,0.00,23.70,27.68,30.31,13.98,46.47,1019.54,2029.82,3342.54,2975.18,3401.53,600.27,596.54,22.16,0000 0000 0000 0000 000000
2017-06-18 04:04:08,-0.01,0.42,0.00,23.72,27.71,30.33,13.86,46.41,1019.53,2029.65,3341.98,2975.00,3401.02,600.00,596.27,22.21,0000 0000 0000 0000 000000
2017-06-18 04:09:09,0.00,0.42,0.00,23.75,27.73,30.35,13.99,46.47,1019.54,2029.40,3341.69,2974.96,3400.98,600.17,596.41,22.26,0000 0000 0000 0000 000000
2017-06-18 04:14:11,-0.00,0.42,0.00,23.77,27.75,30.37,13.96,46.38,1019.55,2029.10,3341.21,2974.51,3400.46,600.12,596.31,22.31,0000 0000 0000 0000 000000
2017-06-18 04:19:12,0.01,0.42,0.00,23.79,27.77,30.39,13.91,46.55,1019.55,2029.05,3340.93,2974.04,3400.02,600.11,595.99,22.36,0000 0000 0000 0000 000000
2017-06-18 04:24:14,0.00,0.42,0.00,23.81,27.80,30.41,13.94,46.43,1019.55,2029.00,3340.70,2974.00,3399.97,599.86,595.97,22.41,0000 0000 0000 0000 000000
2017-06-18 04:29:15,0.02,0.42,0.00,23.85,27.82,30.43,13.89,46.39,1019.52,2029.00,3340.09,2973.90,3399.45,599.83,595.88,22.46,0000 0000 0000 0000 000000
2017-06-18 04:34:16,0.03,0.42,0.00,23.89,27.85,30.46,13.87,46.40,1019.43,2029.00,3339.85,2973.18,3399.01,599.95,595.84,22.51,0000 0000 0000 0000 000000
2017-06-18 04:39:17,0.01,0.42,0.00,23.92,27.87,30.48,13.92,46.44,1019.49,2029.00,3339.26,2973.01,3398.87,599.94,595.80,22.56,0000 0000 0000 0000 000000
2017-06-18 04:44:19,0.01,0.43,0.00,23.95,27.90,30.51,13.82,46.32,1019.44,2028.95,3338.95,2972.95,3398.10,599.79,595.57,22.61,0000 0000 0000 0000 000000
2017-06-18 04:49:20,0.01,0.43,0.00,23.97,27.93,30.54,13.87,46.40,1019.53,2028.78,3338.71,2972.38,3397.99,599.79,595.60,22.66,0000 0000 0000 0000 000000
2017-06-18 04:54:21,-0.01,0.43,0.00,23.99,27.96,30.55,13.83,46.27,1019.50,2028.55,3338.07,2972.01,3397.86,599.80,595.50,22.71,0000 0000 0000 0000 000000
2017-06-18 04:59:22,-0.02,0.43,0.00,24.04,27.98,30.58,13.93,46.48,1019.50,2028.17,3337.88,2972.00,3397.12,599.86,595.33,22.76,0000 0000 0000 0000 000000
2017-06-18 05:04:23,0.01,0.42,0.00,24.05,28.01,30.62,13.89,46.46,1019.52,2028.01,3337.23,2971.83,3396.99,599.85,595.48,22.81,0000 0000 0000 0000 000000
2017-06-18 05:09:25,0.03,0.43,0.00,24.08,28.03,30.64,13.90,46.35,1019.51,2028.00,3337.00,2971.22,3396.63,600.05,595.57,22.86,0000 0000 0000 0000 000000
2017-06-18 05:14:26,0.01,0.43,0.00,24.11,28.06,30.67,13.85,46.38,1019.47,2028.00,3336.49,2971.00,3396.04,599.81,595.37,22.91,0000 0000 0000 0000 000000
2017-06-18 05:19:27,0.01,0.43,0.00,24.14,28.08,30.69,13.93,46.43,1019.44,2028.00,3336.01,2970.88,3395.94,599.74,595.07,22.96,0000 0000 0000 0000 000000
2017-06-18 05:24:29,0.04,0.43,0.00,24.17,28.11,30.71,13.96,46.38,1019.40,2027.98,3335.52,2970.15,3395.18,599.98,595.31,23.01,0000 0000 0000 0000 000000
2017-06-18 05:29:30,0.00,0.43,0.00,24.18,28.13,30.73,13.90,46.30,1019.49,2027.98,3335.06,2970.00,3395.00,600.13,595.40,23.06,0000 0000 0000 0000 000000
2017-06-18 05:34:31,-0.00,0.43,0.00,24.21,28.16,30.76,13.95,46.40,1019.45,2027.90,3334.97,2969.98,3394.87,600.10,595.34,23.11,0000 0000 0000 0000 000000
2017-06-18 05:39:32,-0.00,0.43,0.00,24.22,28.18,30.79,13.91,46.32,1019.20,2027.54,3334.39,2969.61,3394.13,599.90,595.02,23.16,0000 0000 0000 0000 000000
2017-06-18 05:44:34,-0.01,0.43,0.00,24.25,28.20,30.82,13.93,46.47,1019.12,2027.35,3333.93,2969.04,3393.99,600.19,595.19,23.21,0000 0000 0000 0000 000000
2017-06-18 05:49:35,-0.01,0.43,0.00,24.28,28.22,30.85,13.90,46.34,1019.14,2027.06,3333.68,2969.00,3393.72,600.14,595.06,23.26,0000 0000 0000 0000 000000
2017-06-18 05:54:37,0.02,0.43,0.00,24.30,28.25,30.87,13.88,46.43,1019.19,2027.01,3333.08,2968.84,3393.05,599.99,594.89,23.31,0000 0000 0000 0000 000000
2017-06-18 05:59:38,0.02,0.43,0.00,24.32,28.28,30.89,13.91,46.43,1019.22,2027.00,3332.95,2968.16,3392.99,599.87,594.83,23.36,0000 0000 0000 0000 000000
2017-06-18 06:04:39,0.02,0.43,0.00,24.35,28.30,30.91,13.92,46.46,1019.21,2027.00,3332.22,2968.00,3392.51,600.11,594.96,23.41,0000 0000 0000 0000 000000
2017-06-18 06:09:40,0.00,0.43,0.00,24.37,28.32,30.95,13.87,46.33,1019.09,2026.99,3331.92,2967.99,3392.02,599.95,594.57,23.46,0000 0000 0000 0000 000000
2017-06-18 06:14:41,0.03,0.43,0.00,24.40,28.35,30.97,13.89,46.40,1019.08,2026.98,3331.59,2967.61,3391.96,600.00,594.67,23.51,0000 0000 0000 0000 000000
2017-06-18 06:19:43,0.02,0.44,0.00,24.42,28.37,30.99,13.87,46.38,1019.07,2026.97,3330.97,2967.04,3391.20,600.18,594.65,23.56,0000 0000 0000 0000 000000
2017-06-18 06:24:43,-0.00,0.44,0.00,24.44,28.40,31.02,13.90,46.30,1019.07,2026.92,3330.83,2966.99,3391.00,599.67,594.25,23.61,0000 0000 0000 0000 000000
2017-06-18 06:29:45,0.01,0.44,0.00,24.46,28.42,31.04,13.91,46.30,1019.06,2026.76,3330.10,2966.72,3390.97,600.13,594.66,23.66,0000 0000 0000 0000 000000
2017-06-18 06:34:46,-0.00,0.44,0.00,24.49,28.45,31.06,13.88,46.29,1019.07,2026.33,3329.63,2966.05,3390.26,599.90,594.38,23.71,0000 0000 0000 0000 000000
2017-06-18 06:39:48,-0.02,0.44,0.00,24.53,28.47,31.08,13.87,46.31,1019.07,2026.13,3329.10,2966.00,3390.00,600.10,594.47,23.76,0000 0000 0000 0000 000000
2017-06-18 06:44:49,0.01,0.44,0.00,24.56,28.50,31.10,13.81,46.26,1019.07,2026.01,3328.87,2965.76,3389.75,599.80,594.15,23.81,0000 0000 0000 0000 000000
2017-06-18 06:49:50,0.03,0.44,0.00,24.59,28.53,31.12,13.90,46.42,1019.06,2026.00,3328.24,2965.11,3389.07,599.86,594.14,23.86,0000 0000 0000 0000 000000
2017-06-18 06:54:51,0.00,0.44,0.00,24.62,28.56,31.16,13.78,46.55,1019.06,2026.00,3327.96,2965.00,3388.98,599.65,593.95,23.91,0000 0000 0000 0000 000000
2017-06-18 06:59:52,0.02,0.44,0.00,24.66,28.58,31.18,13.95,46.50,1019.06,2025.99,3327.59,2964.92,3388.45,600.28,594.52,23.96,0000 0000 0000 0000 000000
2017-06-18 07:04:53,0.02,0.44,0.00,24.69,28.61,31.19,13.92,46.52,1019.06,2025.95,3327.05,2964.18,3388.02,600.13,594.23,24.01,0000 0000 0000 0000 000000
2017-06-18 07:09:54,0.01,0.44,0.00,24.70,28.63,31.22,13.91,46.34,1019.06,2025.88,3326.72,2964.00,3387.77,599.95,593.80,24.07,0000 0000 0000 0000 000000
2017-06-18 07:14:55,-0.00,0.44,0.00,24.72,28.66,31.26,13.84,46.30,1019.06,2025.71,3326.16,2963.95,3387.12,599.89,593.85,24.12,0000 0000 0000 0000 000000
2017-06-18 07:19:57,-0.01,0.44,0.00,24.74,28.69,31.29,13.86,46.45,1019.06,2025.50,3325.89,2963.53,3386.99,599.92,593.88,24.17,0000 0000 0000 0000 000000
2017-06-18 07:24:58,0.01,0.44,0.00,24.76,28.71,31.31,13.88,46.24,1019.06,2025.17,3325.11,2963.02,3386.48,600.10,594.01,24.22,0000 0000 0000 0000 000000
2017-06-18 07:29:59,-0.00,0.44,0.00,24.80,28.74,31.33,13.87,46.37,1019.06,2025.04,3325.00,2962.99,3386.02,599.91,593.61,24.27,0000 0000 0000 0000 000000
2017-06-18 07:35:01,0.03,0.44,0.00,24.83,28.76,31.34,13.85,46.36,1019.06,2025.00,3324.49,2962.57,3385.92,599.84,593.66,24.32,0000 0000 0000 0000 000000
2017-06-18 07:40:02,0.02,0.44,0.00,24.87,28.79,31.37,13.92,46.45,1019.05,2025.00,3324.02,2962.03,3385.22,600.16,593.89,24.37,0000 0000 0000 0000 000000
2017-06-18 07:45:03,0.00,0.44,0.00,24.90,28.81,31.40,13.93,46.41,1019.03,2025.00,3323.83,2962.00,3385.00,600.21,593.79,24.42,0000 0000 0000 0000 000000
2017-06-18 07:50:05,0.01,0.45,0.00,24.93,28.84,31.42,13.91,46.41,1019.00,2025.00,3323.18,2961.88,3384.85,600.21,593.83,24.47,0000 0000 0000 0000 000000
2017-06-18 07:55:06,0.03,0.45,0.00,24.97,28.86,31.46,13.86,46.34,1019.04,2024.98,3322.80,2961.27,3384.15,599.83,593.34,24.52,0000 0000 0000 0000 000000
2017-06-18 08:00:07,0.01,0.45,0.00,24.99,28.89,31.49,13.90,46.34,1019.04,2024.98,3322.31,2961.01,3384.00,599.76,593.34,24.57,0000 0000 0000 0000 000000
2017-06-18 08:05:09,0.00,0.45,0.00,24.97,28.91,31.53,13.81,46.29,1018.98,2024.94,3322.02,2961.00,3383.95,599.99,593.42,24.62,0000 0000 0000 0000 000000
2017-06-18 08:10:10,0.01,0.45,0.00,24.98,28.92,31.54,13.87,46.28,1018.88,2024.79,3321.64,2960.87,3383.33,600.21,593.61,24.67,0000 0000 0000 0000 000000
2017-06-18 08:15:11,0.01,0.45,0.00,24.97,28.95,31.56,13.88,46.27,1018.81,2024.66,3321.12,2960.35,3383.00,600.00,593.19,24.72,0000 0000 0000 0000 000000
2017-06-18 08:20:12,0.00,0.45,0.00,24.97,28.95,31.56,13.84,46.34,1018.68,2024.43,3320.95,2960.02,3382.98,599.76,593.12,24.77,0000 0000 0000 0000 000000
2017-06-18 08:25:14,-0.03,0.45,0.00,24.97,28.97,31.58,13.85,46.35,1018.61,2024.16,3320.73,2960.00,3382.69,600.34,593.52,24.82,0000 0000 0000 0000 000000
2017-06-18 08:30:15,0.01,0.45,0.00,24.96,28.97,31.57,13.83,46.43,1018.59,2024.09,3320.11,2959.97,3382.10,599.92,593.19,24.87,0000 0000 0000 0000 000000
2017-06-18 08:35:17,0.01,0.45,0.00,24.89,28.98,31.62,13.80,46.36,1018.57,2024.10,3319.82,2959.83,3381.99,599.47,592.83,24.92,0000 0000 0000 0000 000000
2017-06-18 08:40:18,0.02,0.45,0.00,24.81,28.98,31.75,13.92,46.24,1018.57,2024.14,3319.30,2959.47,3381.96,600.16,593.85,24.97,0000 0000 0000 0000 000000
2017-06-18 08:45:19,0.01,0.45,0.00,24.74,28.97,31.83,13.91,46.45,1018.57,2024.10,3319.04,2959.09,3381.63,600.07,593.77,25.02,0000 0000 0000 0000 000000
2017-06-18 08:50:20,0.00,0.45,0.00,24.69,28.96,31.82,13.89,46.34,1018.57,2024.09,3318.99,2959.03,3381.23,600.00,593.91,25.07,0000 0000 0000 0000 000000
2017-06-18 08:55:21,0.02,0.45,0.00,24.62,28.94,31.81,13.85,46.36,1018.57,2024.20,3318.78,2959.03,3381.12,599.94,593.83,25.12,0000 0000 0000 0000 000000
2017-06-18 09:00:23,-0.01,0.45,0.00,24.59,28.91,31.76,13.88,46.33,1018.57,2024.19,3318.56,2959.01,3381.02,599.95,594.00,25.17,0000 0000 0000 0000 000000
2017-06-18 09:05:24,0.06,0.45,0.00,24.53,28.89,31.70,13.92,46.42,1018.58,2024.66,3318.05,2959.01,3381.01,600.10,594.21,25.22,0000 0000 0000 0000 000000
2017-06-18 09:10:25,0.01,0.46,0.00,24.50,28.86,31.64,13.92,46.34,1018.57,2024.93,3318.05,2959.04,3381.03,599.99,594.16,25.27,0000 0000 0000 0000 000000
2017-06-18 09:15:27,0.00,0.46,0.00,24.48,28.82,31.61,13.95,46.35,1018.57,2024.99,3318.00,2959.07,3381.03,600.31,594.52,25.32,0000 0000 0000 0000 000000
2017-06-18 09:20:28,-0.00,0.46,0.00,24.45,28.79,31.51,13.91,46.32,1018.57,2024.99,3317.99,2959.09,3381.06,599.80,594.08,25.37,0000 0000 0000 0000 000000
2017-06-18 09:25:29,-0.01,0.46,0.00,24.45,28.75,31.47,13.93,46.30,1018.57,2024.99,3318.00,2959.45,3381.25,600.03,594.30,25.42,0000 0000 0000 0000 000000
2017-06-18 09:30:31,0.00,0.46,0.00,24.51,28.72,31.40,13.80,46.27,1018.55,2025.11,3317.99,2959.87,3381.61,599.78,593.80,25.47,0000 0000 0000 0000 000000
2017-06-18 09:35:32,0.01,0.46,0.00,24.56,28.69,31.36,13.86,46.17,1018.54,2025.19,3318.00,2959.94,3381.82,600.01,594.06,25.52,0000 0000 0000 0000 000000
2017-06-18 09:40:33,0.04,0.46,0.00,24.57,28.67,31.32,13.83,46.28,1018.54,2025.63,3317.99,2959.95,3381.79,599.55,593.56,25.57,0000 0000 0000 0000 000000
2017-06-18 09:45:35,0.01,0.46,0.00,24.60,28.65,31.24,13.83,46.19,1018.39,2025.90,3318.00,2959.97,3381.86,599.54,593.44,25.62,0000 0000 0000 0000 000000
2017-06-18 09:50:36,0.01,0.46,0.00,24.71,28.65,31.13,13.85,46.16,1018.26,2025.93,3317.98,2959.91,3381.65,599.99,593.54,25.67,0000 0000 0000 0000 000000
2017-06-18 09:55:38,0.01,0.46,0.00,24.83,28.65,31.06,13.78,46.04,1018.12,2025.93,3317.87,2959.70,3381.18,599.57,592.81,25.72,0000 0000 0000 0000 000000
2017-06-18 10:00:39,0.01,0.46,0.00,24.87,28.65,31.07,13.81,46.17,1018.11,2025.93,3317.51,2959.46,3381.06,599.87,593.09,25.77,0000 0000 0000 0000 000000
2017-06-18 10:05:41,0.02,0.46,0.00,24.87,28.66,31.09,13.80,46.23,1018.10,2025.95,3317.13,2959.13,3381.00,599.87,593.03,25.82,0000 0000 0000 0000 000000
2017-06-18 10:10:41,-0.00,0.46,0.00,24.84,28.67,31.13,13.83,46.29,1018.09,2025.90,3317.01,2959.03,3381.00,599.93,593.14,25.87,0000 0000 0000 0000 000000
2017-06-18 10:15:42,-0.00,0.46,0.00,24.79,28.67,31.18,13.81,46.32,1018.10,2025.83,3316.99,2959.00,3380.98,599.93,593.17,25.92,0000 0000 0000 0000 000000
2017-06-18 10:20:43,0.00,0.46,0.00,24.78,28.67,31.21,13.79,46.38,1018.09,2025.84,3316.97,2959.00,3380.96,599.73,593.07,25.97,0000 0000 0000 0000 000000
2017-06-18 10:25:44,0.01,0.46,0.00,24.77,28.67,31.22,13.86,46.25,1018.08,2025.93,3316.93,2959.00,3380.95,600.15,593.54,26.02,0000 0000 0000 0000 000000
2017-06-18 10:30:45,-0.00,0.46,0.00,24.74,28.67,31.23,13.84,46.26,1018.08,2025.95,3316.88,2959.00,3380.92,599.88,593.33,26.07,0000 0000 0000 0000 000000
2017-06-18 10:35:47,0.03,0.46,0.00,24.74,28.67,31.21,13.87,46.19,1018.07,2025.95,3316.08,2958.99,3380.21,599.87,593.18,26.12,0000 0000 0000 0000 000000
2017-06-18 10:40:48,-0.00,0.46,0.00,24.81,28.65,31.13,13.83,46.15,1018.07,2025.98,3316.00,2958.98,3380.12,600.12,593.48,26.17,0000 0000 0000 0000 000000
2017-06-18 10:45:49,-0.00,0.46,0.00,24.90,28.65,31.03,13.88,46.33,1017.93,2025.97,3316.02,2958.98,3380.11,600.35,593.38,26.22,0000 0000 0000 0000 000000
2017-06-18 10:50:51,0.00,0.46,0.00,25.01,28.65,31.00,13.87,46.33,1017.68,2025.96,3316.01,2958.96,3380.03,600.05,592.73,26.27,0000 0000 0000 0000 000000
2017-06-18 10:55:52,0.00,0.46,0.00,25.09,28.65,30.98,13.84,46.18,1017.64,2025.97,3316.00,2958.86,3380.01,600.23,592.65,26.32,0000 0000 0000 0000 000000
2017-06-18 11:00:53,0.00,0.46,0.00,25.15,28.65,31.00,13.78,46.08,1017.61,2025.98,3315.99,2958.69,3380.00,599.82,592.08,26.37,0000 0000 0000 0000 000000
2017-06-18 11:05:55,0.00,0.46,0.00,25.18,28.65,31.04,13.77,46.21,1017.59,2025.98,3315.96,2958.51,3380.00,599.75,592.00,26.42,0000 0000 0000 0000 000000
2017-06-18 11:10:56,0.01,0.46,0.00,25.16,28.65,31.07,13.84,46.18,1017.59,2025.98,3315.73,2958.24,3380.00,600.05,592.35,26.47,0000 0000 0000 0000 000000
2017-06-18 11:15:57,0.01,0.47,0.00,25.11,28.67,31.11,13.79,46.07,1017.60,2025.99,3315.06,2958.02,3379.85,600.02,592.36,26.52,0000 0000 0000 0000 000000
2017-06-18 11:20:59,0.00,0.47,0.00,25.06,28.67,31.15,13.80,46.02,1017.59,2025.98,3314.96,2958.01,3379.46,600.02,592.51,26.57,0000 0000 0000 0000 000000
2017-06-18 11:26:00,0.01,0.47,0.00,25.01,28.67,31.17,13.84,46.11,1017.59,2025.99,3314.73,2958.00,3379.14,599.99,592.49,26.62,0000 0000 0000 0000 000000
2017-06-18 11:31:01,0.00,0.47,0.00,24.97,28.67,31.18,13.85,45.98,1017.59,2025.97,3314.14,2958.00,3379.01,599.91,592.54,26.67,0000 0000 0000 0000 000000
2017-06-18 11:36:02,0.00,0.47,0.00,24.94,28.67,31.18,13.88,46.13,1017.52,2025.99,3314.03,2957.99,3379.00,600.20,592.94,26.72,0000 0000 0000 0000 000000
2017-06-18 11:41:03,-0.01,0.47,0.00,24.92,28.67,31.20,13.81,46.17,1017.42,2025.97,3314.32,2957.98,3379.00,599.79,592.46,26.77,0000 0000 0000 0000 000000
2017-06-18 11:46:05,0.00,0.47,0.00,24.90,28.67,31.19,13.81,46.25,1017.20,2025.97,3314.49,2957.99,3379.01,600.13,592.72,26.82,0000 0000 0000 0000 000000
2017-06-18 11:51:06,0.00,0.47,0.00,24.90,28.67,31.18,13.89,46.27,1017.17,2025.95,3314.25,2957.97,3379.00,600.20,592.76,26.87,0000 0000 0000 0000 000000
2017-06-18 11:56:07,0.00,0.47,0.00,24.93,28.65,31.15,13.75,46.22,1017.14,2025.93,3313.99,2957.82,3378.98,599.69,592.23,26.92,0000 0000 0000 0000 000000
2017-06-18 12:01:08,0.03,0.47,0.00,24.94,28.65,31.14,13.83,46.21,1017.12,2025.93,3313.75,2957.32,3378.76,599.85,592.32,26.97,0000 0000 0000 0000 000000
2017-06-18 12:06:10,0.01,0.47,0.00,24.96,28.65,31.12,13.91,46.27,1017.11,2025.96,3313.45,2957.16,3378.52,600.21,592.52,27.02,0000 0000 0000 0000 000000
2017-06-18 12:11:11,0.01,0.47,0.00,24.99,28.65,31.11,13.81,46.20,1017.11,2025.98,3313.03,2957.04,3378.17,599.69,592.04,27.07,0000 0000 0000 0000 000000
2017-06-18 12:16:12,0.00,0.47,0.00,25.01,28.65,31.10,13.78,46.17,1017.10,2025.99,3312.98,2957.01,3378.03,599.97,592.21,27.12,0000 0000 0000 0000 000000
2017-06-18 12:21:13,0.00,0.47,0.00,25.04,28.65,31.10,13.80,46.09,1017.06,2025.99,3312.93,2957.00,3378.00,599.99,592.22,27.17,0000 0000 0000 0000 000000
2017-06-18 12:26:15,0.01,0.47,0.00,25.03,28.65,31.11,13.77,46.10,1016.95,2025.99,3312.62,2957.00,3378.00,599.89,592.01,27.22,0000 0000 0000 0000 000000
2017-06-18 12:31:16,0.00,0.47,0.00,25.02,28.65,31.11,13.85,46.02,1016.94,2025.99,3312.14,2956.99,3377.98,600.07,592.27,27.27,0000 0000 0000 0000 000000
2017-06-18 12:36:17,0.00,0.47,0.00,25.01,28.65,31.10,13.76,46.13,1016.71,2025.99,3312.02,2956.99,3377.94,599.72,591.67,27.32,0000 0000 0000 0000 000000
2017-06-18 12:41:18,0.00,0.47,0.00,25.00,28.65,31.11,13.81,45.93,1016.64,2025.99,3312.00,2956.97,3377.65,600.11,592.15,27.37,0000 0000 0000 0000 000000
2017-06-18 12:46:20,0.01,0.47,0.00,25.00,28.65,31.12,13.78,45.98,1016.62,2025.99,3311.96,2956.88,3377.16,600.35,592.39,27.42,0000 0000 0000 0000 000000
2017-06-18 12:51:21,0.02,0.47,0.00,25.01,28.65,31.13,13.80,46.08,1016.62,2025.99,3311.47,2956.61,3377.01,599.75,591.98,27.47,0000 0000 0000 0000 000000
2017-06-18 12:56:22,0.01,0.47,0.00,25.01,28.65,31.12,13.76,46.13,1016.62,2025.99,3311.05,2956.26,3377.00,599.98,592.21,27.52,0000 0000 0000 0000 000000